Location: Malvern Link
(52.1333°N, 2.3000°W)
Time: 14:48:48
(UTC+00:00)

SO-50 - Pass Details

Date: 11 July 2022
Orbit: 585 x 698 km, 64.6° (Epoch: 11 August)

Event Time Altitude Azimuth Distance (km) Brightness Sun altitude
Rises 02:44:43 0° 305° (NW) 3,057 ? -8.9°
Reaches altitude 10° 02:47:37 10° 322° (NW) 2,154 ? -8.6°
Maximum altitude 02:51:17 20° 10° (N) 1,577 ? -8.3°
Drops below altitude 10° 02:54:58 10° 58° (ENE) 2,168 ? -7.9°
Sets 02:57:53 0° 75° (ENE) 3,083 ? -7.7°
